New Products - 新商品のご案内
 
掲載日 No. 内容 詳細
2016/12/29 2016-0292 価格改定のご案内(DAMPER ZZ-Rシリーズ) PDF WORD
2016/12/29 2016-0291 価格改定のご案内(マフラー製品) PDF WORD
2016/12/28 2016-0290 RACING OIL FILTER 追加適合 (ロードスターRF) PDF WORD
2016/12/28 2016-0289 TV JUMPER、TV-NAVI JUMPER 追加適合(ロードスターRF) PDF WORD
2016/12/28 2016-0288 SUS POWER AIR FILTER 追加適合 (C-HR、ロードスターRF) PDF WORD
2016/12/27 2016-0287 生産終了のご案内 NUR-SPEC C-Ti(コペン、ジムニー、ミニ、ミニペースマン) PDF WORD
2016/12/27 2016-0286 NUR-SPEC VSR 新商品(コペン、ジムニー) PDF WORD
2016/12/27 2016-0285 DAMPER ZZ-R SpecDSC 追加適合 (ロードスターRF NDERC) PDF WORD
2016/12/27 2016-0284 DAMPER ZZ-R 追加適合 (ロードスターRF NDERC) PDF WORD
2016/12/27 2016-0283 NUR-SPEC VS 追加適合 (アルトワークス2WD AT HA36S) PDF WORD
2016/12/27 2016-0282 NUR-SPEC VSR 追加適合 (アルトワークス2WD AT HA36S) PDF WORD
2016/12/27 2016-0281 A/F SENSOR ATTACHMENT PDF WORD
2016/12/26 2016-0280 STRUT TOWER BAR PDF WORD
2016/12/26 2016-0279 OIL SENSOR ATTACHMENT 追加適合 (ロードスターRF、シフォン) PDF WORD
2016/12/26 2016-0278 OBD MONITOR Series 追加適合 (C-HR、ロードスターRF、シフォン) PDF WORD
2016/12/26 2016-0277 ThroCon 追加適合 (C-HR、ロードスターRF、シフォン) PDF WORD
2016/12/26 2016-0276 SmaThro 追加適合 (C-HR、ロードスターRF、シフォン) PDF WORD
2016/12/21 2016-0275 RACING OIL COOLER KIT RD 新商品(86/BRZ MC後) PDF WORD
2016/12/21 2016-0274 RACING OIL FILTER 新商品 (SUZUKI用) PDF WORD
2016/12/21 2016-0273 RACING OIL FILTER 新商品 (MAZDA用) PDF WORD
2016/12/21 2016-0272 SUPER SOUND BLOW OFF VALVE VD 新商品 (S660 JW5) PDF WORD
2016/12/15 2016-0271 生産終了のご案内 INTERCOOLER CS(コルト Z27AG) PDF WORD
2016/12/13 2016-0270 SUS POWER AIR FILTER 新商品 (LEXUS、MAZDA、SUZUKI) PDF WORD
2016/12/08 2016-0269 OBD MONITOR Series 追加適合 (タンク、ルーミー、ジャスティ、トール他) PDF WORD
2016/12/08 2016-0268 ThroCon 追加適合 (タンク、ルーミー、ジャスティ、トール、フリード) PDF WORD
2016/12/08 2016-0267 SmaThro 追加適合 (タンク、ルーミー、ジャスティ、トール、フリード) PDF WORD
2016/11/29 2016-0266 NUR-SPEC VS 新商品 (キャスト4WD LA260S) PDF WORD
2016/11/29 2016-0265 NUR-SPEC VSR 新商品 (キャスト4WD LA260S) PDF WORD
2016/11/29 2016-0264 NUR-SPEC VS 新商品 (パッソ M700A) PDF WORD
2016/11/29 2016-0263 NUR-SPEC VSR 新商品 (パッソ M700A) PDF WORD
2016/11/14 2016-0262 CORE TYPE AIR CLEANER 新製品 (EVERY、CLIPPER、SCRUM、MINICAB他) PDF WORD
2016/11/14 2016-0261 CORE TYPE AIR CLEANER 新製品 (PRIUS) PDF WORD
2016/11/14 2016-0260 CORE TYPE AIR CLEANER 新製品 (CX-5、AXELA、ATENZA) PDF WORD
2016/11/14 2016-0259 TV JUMPER、TV-NAVI JUMPER 追加適合 (LEXUS GS200t) PDF WORD
2016/11/14 2016-0258 TV JUMPER、TV-NAVI JUMPER 追加適合 (DAIHATSU DOPナビ) PDF WORD
2016/11/14 2016-0257 TV JUMPER、TV-NAVI JUMPER 追加適合 (HONDA DOPナビ) PDF WORD
2016/11/14 2016-0256 生産終了のご案内 NUR-SPEC C-Ti(N-BOXスラッシュ JF1、ミラジーノ L650S) PDF WORD
2016/11/14 2016-0255 NUR-SPEC VSR 新商品(N-BOXスラッシュ JF1) PDF WORD
2016/11/14 2016-0254 PowerThro 新商品(デイズ、CX-3、デミオなど) PDF WORD
2016/11/14 2016-0253 NUR-SPEC F-Ti 新商品 (ロードスター ND5RC) PDF WORD
2016/11/10 2016-0252 RACING OIL FILTER 追加適合(VOXY、NOAH他) PDF WORD
2016/11/4 2016-0251 AERO SPEED R-Concept GT Wing Standard (S660 JW5) PDF WORD
2016/11/4 2016-0250 PowerThro 新商品 (オーリス、スカイライン) PDF WORD
2016/10/31 2016-0249 OIL SENSOR ATTACHMENT 追加適合 (オーリス、ピクシスジョイ他) PDF WORD
2016/10/31 2016-0248 OBD MONITOR Series 追加適合 (GS200t、ピクシスジョイ他) PDF WORD
2016/10/31 2016-0247 SCSハーネス(ThroCon、PowerThroオプション品) 追加適合 (パッソ、セレナ他) PDF WORD
2016/10/31 2016-0246 PowerThro 追加適合 (GS200t、ピクシスジョイ) PDF WORD
2016/10/31 2016-0245 ThroCon 追加適合 (GS200t、ピクシスジョイ他) PDF WORD
2016/10/31 2016-0244 SmaThro 追加適合 (GS200t、ピクシスジョイ他) PDF WORD
2016/10/31 2016-0243 CORE TYPE AIR CLEANER 品番変更のご案内 PDF WORD
2016/10/27 2016-0242 DAMPER ZZ-R オプションパーツ (S660 リアピロ調整式アッパーマウント) PDF WORD
2016/10/27 2016-0240 SUCTION KIT 新商品 (アクセラ、アテンザ、CX-5) PDF WORD
2016/10/27 2016-0239 SUCTION KIT 新商品 (CX-3、デミオ) PDF WORD
2016/10/25 2016-0238 DAMPER ZZ-R SpecDSC 追加適合 (セレナ GNC27) PDF WORD
2016/10/25 2016-0237 DAMPER ZZ-R 追加適合 (セレナ GNC27) PDF WORD
2016/10/21 2016-0236 NUR-SPEC VS 新商品 (RC200t ASC10) PDF WORD
2016/10/21 2016-0235 NUR-SPEC VSR 新商品 (RC200t ASC10) PDF WORD
2016/10/21 2016-0234 生産終了のご案内 NUR-SPEC C-Ti(CX-5、ミラジーノ) PDF WORD
2016/10/21 2016-0233 NUR-SPEC VSR 新商品(CX-5、ミラジーノ) PDF WORD
2016/10/19 2016-0232 CORE TYPE AIR CLEANER 追加適合 (ピクシスジョイ) PDF WORD
2016/10/19 2016-0231 SUS POWER AIR FILTER 追加適合 (ピクシスジョイ、フリード他) PDF WORD
2016/10/19 2016-0230 RACING OIL FILTER 追加適合 (GT-R、セレナ) PDF WORD
2016/10/19 2016-0229 SUPER SOUND BLOW OFF VALVE VD 新商品 (アルトワークス HA36S) PDF WORD
2016/10/19 2016-0228 NUR-SPEC VSR 新商品 (S660 JW5) PDF WORD
2016/10/19 2016-0227 NUR-SPEC VS 新商品 (S660 JW5) PDF WORD
2016/10/19 2016-0226 FRONT PIPE 新商品(S660 JW5) PDF WORD
2016/10/07 2016-0225 SUPER SOUND BLOW OFF VALVE VD 追加適合 (ワゴンR MH44S) PDF WORD
2016/10/07 2016-0224 DAMPER ZZ-R BB SpecDSC 新商品 (オデッセイ RB1/RB3) PDF WORD
2016/10/07 2016-0223 DAMPER ZZ-R BB SpecDSC 新商品 (GS/クラウン) PDF WORD
2016/10/06 2016-0222 SUS POWER AIR FILTER 新商品 (S660) PDF WORD
2016/10/06 2016-0221 生産終了のご案内 OIL SENSOR ATTACHMENT Type HS PDF WORD
2016/10/06 2016-0220 OIL SENSOR ATTACHMENT Type H 新商品 (86/BRZ、S660他) PDF WORD
2016/10/06 2016-0219 DAMPER ZZ-R BB 新商品 (オデッセイ RB1/RB3) PDF WORD
2016/10/06 2016-0218 DAMPER ZZ-R BB 新商品 (GS/クラウン) PDF WORD
2016/10/06 2016-0217 DAMPER ZZ-R 新商品 (パッソ/ブーン M700A/M700S) PDF WORD
2016/10/06 2016-0216 DAMPER ZZ-R SpecDSC 新商品 (ピクシスジョイ/キャスト4WD) PDF WORD
2016/10/06 2016-0215 DAMPER ZZ-R 新商品 (ピクシスジョイ/キャスト4WD) PDF WORD
2016/10/06 2016-0214 DAMPER ZZ-R SpecDSC 追加適合 (ピクシスジョイ2WD LA250A) PDF WORD
2016/10/06 2016-0213 DAMPER ZZ-R 追加適合 (ピクシスジョイ2WD LA250A) PDF WORD
2016/10/03 2016-0212 SUPER SOUND BLOW OFF VALVE VD 追加適合 (タント LA600S,LA610S) PDF WORD
2016/10/03 2016-0211 TV JUMPER、TV-NAVI JUMPER 新商品(SUZUKI MOPナビ) PDF WORD
2016/10/03 2016-0210 生産終了のご案内 TV JUMPER、TV-NAVI JUMPER PDF WORD
2016/09/30 2016-0209 生産終了のご案内 THROTTLE CONTROLLER FA PLUS/LIGHT 他 PDF WORD
2016/09/30 2016-0208 OIL SENSOR ATTACHMENT 追加適合 (セレナ、デイズ、ekワゴン他) PDF WORD
2016/09/30 2016-0207 ThroCon 追加適合 (セレナ) PDF WORD
2016/09/30 2016-0206 SmaThro 追加適合 (セレナ) PDF WORD
2016/09/30 2016-0205 NUR-SPEC F-Ti 追加適合(86 MC後、BRZ MC後) PDF WORD
2016/09/30 2016-0204 NUR-SPEC VS/VSR 追加適合(86 MC後) PDF WORD
2016/09/30 2016-0203 NUR-SPEC VS/VSR 追加適合(86 MC後、BRZ MC後) PDF WORD
2016/09/29 2016-0202 DAMPER ZZ-R SpecDSC 追加適合 (セレナ C27) PDF WORD
2016/09/29 2016-0201 DAMPER ZZ-R 追加適合 (セレナ C27) PDF WORD
2016/09/29 2016-0200 Power Thro 追加適合 (ワゴンR、ハスラー他) PDF WORD
2016/09/29 2016-0199 ブーストアダプター 新商品(GS、IS、NX、RC、RX、CROWN) PDF WORD
2016/09/26 2016-0198 生産終了のご案内 ブーストアダプター,METER PANEL BOOST METER SET PDF WORD
2016/09/26 2016-0197 ブーストアダプター 新商品(86/BRZ) PDF WORD
2016/09/26 2016-0196 RACING METER PANEL BOOST METER SET for 86/BRZ 新商品(86/BRZ) PDF WORD
2016/09/26 2016-0195 RACING METER PANEL METER SET for 86/BRZ 追加適合(86/BRZ M/C後) PDF WORD
2016/09/26 2016-0194 RACING METER PANEL for 86/BRZ 追加適合 (86/BRZ M/C後) PDF WORD
2016/09/23 2016-0193 Power Thro 新商品(バレーノ,シビックTypeR) PDF WORD
2016/09/23 2016-0192 NUR-SPEC VS 新商品 (エブリィワゴン,NV100クリッパーリオ) PDF WORD
2016/09/23 2016-0191 NUR-SPEC VSR 新商品 (エブリィワゴン,NV100クリッパーリオ) PDF WORD
2016/09/23 2016-0190 生産終了のご案内 NUR-SPEC C-Ti(プリウス ZVW30,エルグランド E52) PDF WORD
2016/09/23 2016-0189 NUR-SPEC VSR 新商品(プリウス ZVW30) PDF WORD
2016/09/23 2016-0188 TV JUMPER、TV-NA JUMPER 追加適合 (HONDA DOPナビ) PDF WORD
2016/09/20 2016-0187 BIG CALIPER KIT 追加適合 (86/BRZ M/C後) PDF WORD
2016/09/16 2016-0186 BLITZ TV JUMPER検索システム 公開のご案内 PDF WORD
2016/09/16 2016-0185 BLITZ 商品検索システム スマートフォン対応のご案内 PDF WORD
2016/09/16 2016-0184 CORE TYPE AIR CLEANER 追加適合 (86/BRZ M/C後) PDF WORD
2016/09/16 2016-0183 TV JUMPER、TV-NA JUMPER 追加適合 (17モデル R35 GT-R) PDF WORD
2016/09/16 2016-0182 SUCTION KIT 追加適合 (86/BRZ M/C後) PDF WORD
2016/09/16 2016-0181 SUS POWER AIR FILTER 追加適合 (86/BRZ M/C後) PDF WORD
2016/09/15 2016-0180 DAMPER ZZ-R SpecDSC 追加適合 (86/BRZ M/C後) PDF WORD
2016/09/15 2016-0179 DAMPER ZZ-R SpecC 追加適合 (86/BRZ M/C後) PDF WORD
2016/09/15 2016-0178 DAMPER ZZ-R 追加適合 (86/BRZ M/C後) PDF WORD
2016/09/13 2016-0177 Power Thro 新商品 (CX-5、アクセラ、アテンザ) PDF WORD
2016/09/12 2016-0176 CORE TYPE AIR CLEANER 新製品 (IS200t、RC200t、CROWN) PDF WORD
2016/09/12 2016-0175 TV JUMPER、TV-NAVI JUMPER 追加適合(DAIHATSU DOPナビ) PDF WORD
2016/09/09 2016-0174 RACING RADIATOR HOSE KIT 追加適合(86、BRZ) PDF WORD
2016/09/09 2016-0173 RACING RADIATOR TypeZS 追加適合(86、BRZ) PDF WORD
2016/09/09 2016-0172 EX. DIFFUSER 追加適合(86、BRZ) PDF WORD
2016/09/09 2016-0171 NUR-SPEC R 追加適合(86、BRZ) PDF WORD
2016/09/09 2016-0170 NUR-SPEC VS/VSR 追加適合(86(AT)、BRZ(AT)) PDF WORD
2016/09/09 2016-0169 Power Thro 追加適合(86/BRZ) PDF WORD
2016/09/08 2016-0168 TV JUMPER、TV-NAVI JUMPER 追加適合(HONDA DOPナビ) PDF WORD
2016/09/08 2016-0167 TV JUMPER、TV-NAVI JUMPER 追加適合(NISSAN DOPナビ) PDF WORD
2016/09/08 2016-0166 TV JUMPER、TV-NAVI JUMPER 追加適合(TOYOTA DOPナビ) PDF WORD
2016/09/07 2016-0165 生産終了のご案内 NUR-SPEC OVAL-Ti(ウェイク LA700S) PDF WORD
2016/09/07 2016-0164 NUR-SPEC VSR 新商品(ウェイク LA700S) PDF WORD
2016/09/05 2016-0163 RACING OIL FILTER 追加適合 (86、BRZ) PDF WORD
2016/09/05 2016-0162 水温センサーアタッチメント 追加適合 (86、BRZ) PDF WORD
2016/09/05 2016-0161 Touch-B.R.A.I.N. Exclusive for the 86/BRZ 追加適合 PDF WORD
2016/09/05 2016-0160 OBD MONITOR Series 追加適合(86、BRZ、オーリス他) PDF WORD
2016/09/05 2016-0159 ThroCon 追加適合 (86、BRZ、オーリス他) PDF WORD
2016/09/05 2016-0158 SmaThro 追加適合 (86、BRZ、オーリス他) PDF WORD
2016/09/05 2016-0157 CORE TYPE AIR CLEANER 追加適合 (ハイゼットキャリー) PDF WORD
2016/09/05 2016-0156 CORE TYPE AIR CLEANER 追加適合 (スペーシアカスタム他) PDF WORD
2016/09/01 2016-0155 DAMPER ZZ-R SpecDSC 追加適合 (オーリスハイブリッド) PDF WORD
2016/09/01 2016-0154 DAMPER ZZ-R 追加適合 (オーリスハイブリッド) PDF WORD
2016/08/31 2016-0153 RACING RADIATOR TypeZS 新商品 (ロードスター ND5RC) PDF WORD
2016/08/30 2016-0152 DAMPER ZZ-R BB 追加適合 (ヴォクシーハイブリッド、ノアハイブリッド) PDF WORD
2016/08/30 2016-0151 DAMPER ZZ-R SpecDSC 追加適合 (ヴォクシーハイブリッド、ノアハイブリッド) PDF WORD
2016/08/30 2016-0150 DAMPER ZZ-R 追加適合 (ヴォクシーハイブリッド、ノアハイブリッド) PDF WORD
2016/08/25 2016-0149 ThroCon 追加適合 (エスティマ、アクセラ他) PDF WORD
2016/08/25 2016-0148 SmaThro 追加適合 (エスティマ、アクセラ他) PDF WORD
2016/08/25 2016-0147 OBD MONITOR Series 追加適合(エスティマ、セレナ、アクセラ他) PDF WORD
2016/08/25 2016-0146 DAMPER ZZ-R 追加適合 (アクセラスポーツ BMLFS) PDF WORD
2016/08/23 2016-0145 NUR-SPEC VSR 新商品(マーチニスモS K13改、N-BOXカスタム JF2) PDF WORD
2016/08/23 2016-0144 生産終了のご案内 NUR-SPEC C-Ti(マーチニスモS K13改、N-BOXカスタム JF2) PDF WORD
2016/08/09 2016-0143 AERO SPEED R-Concept エアロボンネット、GTウイング (S660) PDF WORD
2016/08/08 2016-0142 生産終了のご案内 TV JUMPER、TV-NAVI JUMPER PDF WORD
2016/08/05 2016-0141 生産終了のご案内 NUR-SPEC C-Ti(L175S他) ,SUPPORT PIPE (GRB) PDF WORD
2016/08/05 2016-0140 NUR-SPEC VSR 新商品(N BOXカスタム、N BOX+カスタム JF1) PDF WORD
2016/08/05 2016-0139 生産終了のご案内 CARBON SUCTION KIT PDF WORD
2016/07/29 2016-0138 AERO SPEED R-Concept Front Bumper Spoiler アルファード PDF WORD
2016/07/29 2016-0137 生産終了のご案内 BOOST UP DRIVER Type01、FUEL PUMP(汎用) PDF WORD
2016/07/29 2016-0136 Power Thro 追加適合 (レヴォーグ) PDF WORD
2016/07/29 2016-0135 TV JUMPER、TV-NAVI JUMPER 追加適合(NISSAN DOPナビ) PDF WORD
2016/07/22 2016-0134 RACING OIL 20Lペール缶 S2 5W-30 / S2 0W-20 / S2D 5W-30 / S3 5W-30 PDF WORD
2016/07/19 2016-0133 DAMPER ZZ-R SpecDSC 追加適合 (エスティマ、エスティマハイブリッド) PDF WORD
2016/07/19 2016-0132 DAMPER ZZ-R 追加適合 (エスティマ、エスティマハイブリッド) PDF WORD
2016/07/15 2016-0131 Power Thro 追加適合(N-BOX) PDF WORD
2016/07/14 2016-0130 生産終了のご案内 NUR-SPEC R (MR-2 SW20) PDF WORD
2016/07/13 2016-0129 NUR-SPEC VSR 新商品(フォレスター他) PDF WORD
2016/07/13 2016-0128 生産終了のご案内 NUR-SPEC C-Ti (フォレスター他) PDF WORD
2016/07/11 2016-0127 Power Thro 追加適合(クラウン) PDF WORD
2016/07/08 2016-0126 NUR-SPEC VSR 新商品(レヴォーグ他) PDF WORD
2016/07/08 2016-0125 生産終了のご案内 NUR-SPEC C-Ti (レヴォーグ他) PDF WORD
2016/07/07 2016-0124 BLITZ OUTDOOR LOUNGE CHAIR PDF WORD
2016/07/07 2016-0123 DAMPER ZZ-R SpecDSC 新商品 (シエンタ、シエンタハイブリッド) PDF WORD
2016/07/07 2016-0122 DAMPER ZZ-R 新商品 (シエンタ、シエンタハイブリッド) PDF WORD
2016/07/04 2016-0121 OBD MONITOR Series 追加適合(パッソ、イグニス、バレーノ、ブーン他) PDF WORD
2016/07/04 2016-0120 BIG CALIPER KIT 追加適合 (WRX S4) PDF WORD
2016/07/01 2016-0119 OIL SENSOR ATTACHMENT 追加適合 (アルトワークス、バレーノ他) PDF WORD
2016/07/01 2016-0118 Power Thro 追加適合 (ムーヴ、ステラ) PDF WORD
2016/07/01 2016-0117 ThroCon 追加適合 (バレーノ) PDF WORD
2016/07/01 2016-0116 SmaThro 追加適合 (バレーノ) PDF WORD
2016/07/01 2016-0115 NUR-SPEC VS 新商品 (プリウス 4WD ZVW55) PDF WORD
2016/07/01 2016-0114 NUR-SPEC VSR 新商品 (プリウス 4WD ZVW55) PDF WORD
2016/06/29 2016-0113 NUR-SPEC VS 新商品 (アルトワークス、アルトターボRS 4WD HA36S) PDF WORD
2016/06/29 2016-0112 NUR-SPEC VSR 新商品 (アルトワークス、アルトターボRS 4WD HA36S) PDF WORD
2016/06/29 2016-0111 NUR-SPEC F-Ti 新商品 (RC-F USC10) PDF WORD
2016/06/27 2016-0110 RACING OIL 1L S2 5W-30 / S2 0W-20 / S2D 5W-30 / S3 5W-30 PDF WORD
2016/06/23 2016-0109 Power Thro 追加適合 (IS200t) PDF WORD
2016/06/22 2016-0108 SUPER SOUND BLOW OFF VALVE VD 新商品 (キャスト LA250S,LA260S) PDF WORD
2016/06/21 2016-0107 Power Thro 追加適合 (エブリィ、クリッパー、スクラム、タウンボックス等) PDF WORD
2016/06/21 2016-0106 Power Thro 追加適合 (N-ONE) PDF WORD
2016/06/15 2016-0105 生産終了のご案内 UP GRADE ACTUATOR PDF WORD
2016/06/14 2016-0104 NUR-SPEC VS 新商品 (ノートニスモ K12改) PDF WORD
2016/06/14 2016-0103 NUR-SPEC VSR 新商品 (ノートニスモ K12改) PDF WORD
2016/06/13 2016-0102 AERO SPEED R-Concept S660 PDF WORD
2016/06/09 2016-0101 CORE TYPE AIR CLEANER 新商品 (CX-3、DEMIO) PDF WORD
2016/06/07 2016-0100 ThroCon 追加適合 (パッソ、シビック、イグニス、ブーン他) PDF WORD
2016/06/07 2016-0099 SmaThro 追加適合 (パッソ、シビック、イグニス、ブーン他) PDF WORD
2016/06/07 2016-0098 NUR-SPEC VSR 新商品(86他) PDF WORD
2016/06/07 2016-0097 生産終了のご案内 NUR-SPEC C-Ti (86他) PDF WORD
2016/06/01 2016-0096 生産終了のご案内 TV JUMPER DV-S 全シリーズ PDF WORD
2016/05/31 2016-0095 AERO SPEED R-Concept ロードスター PDF WORD
2016/05/30 2016-0094 NUR-SPEC VS 新商品 (ロードスター(QUAD) ND5RC) PDF WORD
2016/05/30 2016-0093 NUR-SPEC VSR 新商品 (ロードスター(QUAD) ND5RC) PDF WORD
2016/05/27 2016-0092 AERO SPEED R-Concept Front Lip Spoiler LEXUS RC PDF WORD
2016/05/24 2016-0091 AERO SPEED R-Concept Front Bumper Spoiler ヴェルファイア PDF WORD
2016/05/23 2016-0090 DAMPER ZZ-R SpecDSC 新商品 (ジェイド、ジェイドハイブリッド FR4/FR5) PDF WORD
2016/05/23 2016-0089 DAMPER ZZ-R 新商品 (MINI CLUBMAN F54) PDF WORD
2016/05/23 2016-0088 DAMPER ZZ-R 新商品 (ジェイド、ジェイドハイブリッド FR4/FR5) PDF WORD
2016/05/20 2016-0087 SUS POWER AIR FILTER 追加適合(LEXUS、TOYOTA、NISSAN 他) PDF WORD
2016/05/13 2016-0086 NUR-SPEC VS 新商品 (プリウス ZVW50,ZVW51) PDF WORD
2016/05/13 2016-0085 NUR-SPEC VSR 新商品 (プリウス ZVW50,ZVW51) PDF WORD
2016/05/13 2016-0084 NUR-SPEC VSR 新商品(N-ONE他) PDF WORD
2016/05/13 2016-0083 生産終了のご案内 NUR-SPEC C-Ti (N-ONE他) PDF WORD
2016/05/11 2016-0082 DAMPER ZZ-R 追加適合 (M135i) PDF WORD
2016/05/09 2016-0081 DAMPER ZZ-R SpecDSC 追加適合 (オデッセイハイブリッド RC4) PDF WORD
2016/05/09 2016-0080 DAMPER ZZ-R 追加適合 (オデッセイハイブリッド RC4) PDF WORD
2016/05/02 2016-0079 NUR-SPEC VS 新商品 (アルトワークス、アルトターボRS HA36S) PDF WORD
2016/05/02 2016-0078 NUR-SPEC VSR 新商品 (アルトワークス、アルトターボRS HA36S) PDF WORD
2016/04/26 2016-0077 SCS HARNESS PDF WORD
2016/04/26 2016-0076 Power Thro PDF WORD
2016/04/21 2016-0075 SUPER SOUND BLOW OFF VALVE VD 新商品 (コペン LA400K) PDF WORD
2016/04/14 2016-0074 AERO SPEED R-Concept Front Lip Spoiler プリウス PDF WORD
2016/04/13 2016-0073 DAMPER ZZ-R 新商品 (プリウス 4WD ZVW55) PDF WORD
2016/04/13 2016-0072 生産終了のご案内 SUPPORT PIPE EJ25 PDF WORD
2016/04/12 2016-0071 TV JUMPER、TV-NAVI JUMPER 追加適合(SUZUKI DOPナビ) PDF WORD
2016/04/12 2016-0070 TV JUMPER、TV-NAVI JUMPER 追加適合(DAIHATSU DOPナビ) PDF WORD
2016/04/08 2016-0069 OBD MONITOR Series 追加適合(オデッセイハイブリッド、シビック、アルト他) PDF WORD
2016/04/07 2016-0068 NUR-SPEC VSR 新商品 (アルファード他) PDF WORD
2016/04/07 2016-0067 生産終了のご案内 NUR-SPEC C-Ti (アルファード他) PDF WORD
2016/04/07 2016-0066 NUR-SPEC VS 新商品 (ロードスター ND5RC) PDF WORD
2016/04/07 2016-0065 NUR-SPEC VSR 新商品 (ロードスター ND5RC) PDF WORD
2016/04/06 2016-0064 BLITZ TUNE YOUR LIFE TRACK JACKET 3L PDF WORD
2016/03/31 2016-0063 DAMPER ZZ-R 追加適合 (エクストレイル HT32、T32) PDF WORD
2016/03/31 2016-0062 NUR-SPEC VS 新商品 (エスクァイア、ノア、ヴォクシー ZWR80G) PDF WORD
2016/03/31 2016-0061 NUR-SPEC OVAL Ti 新商品 (エスクァイア、ノア、ヴォクシー ZWR80G) PDF WORD
2016/03/23 2016-0060 SCRAMBLE SWITCH PDF WORD
2016/03/23 2016-0059 Thro Con PDF WORD
2016/03/23 2016-0058 Sma Thro PDF WORD
2016/03/22 2016-0057 DAMPER ZZ-R 新商品 (プリウス 4WD ZVW55) PDF WORD
2016/03/22 2016-0056 DAMPER ZZ-R 新商品 (プリウス 2WD ZVW50/ZVW51) PDF WORD
2016/03/17 2016-0055 TV JUMPER、TV-NAVI JUMPER 追加適合 (HONDA DOPナビ) PDF WORD
2016/03/17 2016-0054 TV JUMPER、TV-NAVI JUMPER 追加適合 (LEAF) PDF WORD
2016/03/17 2016-0053 TV JUMPER、TV-NAVI JUMPER 追加適合 (HUSTLER) PDF WORD
2016/03/17 2016-0052 CORE TYPE AIR CLEANER 追加適合 (HUSTLER、WAGON R STINGRAY) PDF WORD
2016/03/17 2016-0051 CORE TYPE AIR CLEANER 追加適合 (CAST) PDF WORD
2016/03/10 2016-0050 DAMPER ZZ-R 追加適合 (デミオ15MB DJLFS) PDF WORD
2016/03/10 2016-0049 DAMPER ZZ-R 追加適合 (アクセラセダン BM2FP) PDF WORD
2016/03/10 2016-0048 DAMPER ZZ-R 追加適合 (GS350 GRL12) PDF WORD
2016/03/10 2016-0047 DAMPER ZZ-R SpecDSC 追加適合 (アルトワークス 4WD HA36S) PDF WORD
2016/03/10 2016-0046 DAMPER ZZ-R 追加適合 (アルトワークス 4WD HA36S) PDF WORD
2016/03/10 2016-0045 DAMPER ZZ-R SpecDSC 追加適合 (アルトワークス 2WD HA36S) PDF WORD
2016/03/10 2016-0044 DAMPER ZZ-R 追加適合 (アルトワークス 2WD HA36S) PDF WORD
2016/03/10 2016-0043 DAMPER ZZ-R SpecDSC 新商品 (RC300h、RC350、RC200t) PDF WORD
2016/03/10 2016-0042 DAMPER ZZ-R 新商品 (RC300h、RC350、RC200t) PDF WORD
2016/03/09 2016-0041 Touch-B.R.A.I.N. Exclusive for the 86/BRZ PDF WORD
2016/03/07 2016-0040 NUR-SPEC VSR 新商品 (S660他) PDF WORD
2016/03/07 2016-0039 生産終了のご案内 NUR-SPEC C-Ti (S660他) PDF WORD
2016/03/07 2016-0038 HYBRID AIRCON FILTER 追加適合 (ODYSSEY HYBRID) PDF WORD
2016/03/07 2016-0037 TV JUMPER、TV-NAVI JUMPER 追加適合 (ODYSSEY HYBRID) PDF WORD
2016/02/24 2016-0036 生産終了のご案内 CORE TYPE AIR CLEANER (MPV他) PDF WORD
2016/02/22 2016-0035 生産終了のご案内 NUR-SPEC C-Ti他(MH21S他) PDF WORD
2016/02/18 2016-0034 CORE TYPE AIR CLEANER 新商品 (ALTO Turbo RS、ALTO WORKS) PDF WORD
2016/02/17 2016-0033 NUR-SPEC VSR 新商品 (CT200h他) PDF WORD
2016/02/17 2016-0032 生産終了のご案内 NUR-SPEC C-Ti (CT200h他) PDF WORD
2016/02/16 2016-0031 RACING BRAKE KIT 追加適合(WRX STI) PDF WORD
2016/02/12 2016-0030 DAMPER ZZ-R SpecDSC 新商品 (フーガ、フーガHV Y51) PDF WORD
2016/02/12 2016-0029 DAMPER ZZ-R SpecDSC 新商品 (アルトターボRS 4WD HA36S) PDF WORD
2016/02/12 2016-0028 DAMPER ZZ-R 新商品 (アルトターボRS 4WD HA36S) PDF WORD
2016/02/10 2016-0027 BLITZ POWER GOODS 2016 PDF WORD
2016/02/10 2016-0026 生産終了のご案内 PDF WORD
2016/02/02 2016-0025 NUR-SPEC VS 新商品 (S2000 AP1) PDF WORD
2016/02/02 2016-0024 NUR-SPEC C-Ti 新商品 (S2000 AP1) PDF WORD
2016/02/02 2016-0023 NUR-SPEC VS 新商品 (N-BOX SLASH JF1) PDF WORD
2016/02/02 2016-0022 NUR-SPEC OVAL Ti 新商品 (N-BOX SLASH JF1) PDF WORD
2016/02/01 2016-0021 生産終了のご案内 NUR-SPEC C-Ti(ACR50エスティマ他) PDF WORD
2016/02/01 2016-0020 総合カタログ訂正のご案内 PDF WORD
2016/02/01 2016-0019 DAMPER ZZ-R 新商品 (S660 JW5) PDF WORD
2016/02/01 2016-0018 NUR-SPEC VSR PDF WORD
2016/02/01 2016-0017 DAMPER ZZ-R BB 新商品 (アルファード、ヴェルファイア 4WD・HV) PDF WORD
2016/02/01 2016-0016 DAMPER ZZ-R BB 新商品 (アルファード、ヴェルファイア 2WD) PDF WORD
2016/01/29 2016-0015 POWER BOOK 2016 PDF WORD
2016/01/28 2016-0014 LED Rear Fog Kit PDF WORD
2016/01/27 2016-0013 TV JUMPER、TV-NAVI JUMPER 追加適合(HONDA DOP) PDF WORD
2016/01/27 2016-0012 TV JUMPER、TV-NAVI JUMPER 追加適合(DAIHATSU DOP) PDF WORD
2016/01/27 2016-0011 TV JUMPER、TV-NAVI JUMPER 追加適合(TOYOTA MOP) PDF WORD
2016/01/27 2016-0010 SUS POWER AIR FILTER 新商品(ハイエース・レジアスエース) PDF WORD
2016/01/13 2016-0009 DAMPER ZZ-R SpecC 新商品 (WRX S4,WRX STI,レヴォーグ) PDF WORD
2016/01/13 2016-0008 DAMPER ZZ-R SpecDSC 新商品 (アルトターボRS 2WD HA36S) PDF WORD
2016/01/13 2016-0007 DAMPER ZZ-R 新商品 (アルトターボRS 2WD HA36S) PDF WORD
2016/01/13 2016-0006 DAMPER ZZ-R BB 新商品 (ヴォクシー、ノア、エスクァイア 2WD・HV) PDF WORD
2016/01/13 2016-0005 DAMPER ZZ-R BB 新商品 (アルファード、ヴェルファイア 4WD・HV) PDF WORD
2016/01/13 2016-0004 DAMPER ZZ-R BB 新商品 (アルファード、ヴェルファイア 2WD) PDF WORD
2016/01/13 2016-0003 価格改定のご案内 フロントパイプ、EXディフューザー(一部車種) PDF WORD
2016/01/07 2016-0002 THROTTLE CONTROLLER FA PLUS 追加適合 (LX、RX、プリウス他) PDF WORD
2016/01/07 2016-0001 THROTTLE CONTROLLER FA LIGHT 追加適合 (LX、RX、プリウス他) PDF WORD
本ページのご案内はPDF形式にて掲載されております。
Adobe Readerをお持ちでない方は、右のアイコンよりインストールしてください。